Voltar ao catálogo

STARLINK-36311

AtivoComunicaçõesVLEO
NORAD 68525·PAYLOAD·🇺🇸 United States

Lançado Mar 30, 2026 de Cape Canaveral Space Force Station

Loading…

Próximas Passagens (próximas 24 horas)

TLE

AtualizadoSource: CelesTrak SupGP

Época: Sep 15, 2026, 03:58 UTC

1 68525C 26068T   26258.16576389  .00042036  00000+0  12418-2 0  2586
2 68525  53.1589 324.6521 0001318  95.9724  70.4659 15.34374560    11

Acompanhe STARLINK-36311 em tempo real com AllMySat

Download on the App Store